| time (UTC) | temp F | wind direction | speed MPH | gust MPH | rain 1hr in | rain 24hr in | rain mn in | humidity % | barometer mb |
| 20260504171730 | 64 | 189 | 3.0 | 7.0 | 0.01 | 0.11 | 0.11 | 91 | 1009.4 |
| 20260504170830 | 64 | 172 | 3.0 | 9.0 | 0.02 | 0.11 | 0.11 | 91 | 1009.4 |
| 20260504151130 | 67 | 175 | 7.0 | 16.0 | 0.00 | 0.00 | 0.00 | 80 | 1009.8 |
| 20260504150230 | 67 | 195 | 7.0 | 14.0 | 0.00 | 0.00 | 0.00 | 80 | 1010.0 |
| 20260504140829 | 71 | 175 | 6.0 | 16.0 | 0.00 | 0.00 | 0.00 | 74 | 1009.5 |
| 20260504130530 | 70 | 88 | 4.0 | 9.0 | 0.00 | 0.00 | 0.00 | 76 | 1009.7 |
| 20260504120229 | 70 | 83 | 7.0 | 11.0 | 0.00 | 0.00 | 0.00 | 75 | 1010.7 |
| 20260504110344 | 71 | 42 | 11.0 | 18.0 | 0.00 | 0.00 | 0.00 | 76 | 1010.8 |
| 20260504081244 | 68 | 152 | 3.0 | 10.0 | 0.00 | 0.00 | 0.00 | 76 | 1011.0 |
| 20260504080344 | 68 | 173 | 2.0 | 8.0 | 0.00 | 0.00 | 0.00 | 76 | 1011.2 |
| 20260504050344 | 58 | 203 | 3.0 | 7.0 | 0.00 | 0.00 | 0.00 | 89 | 1011.6 |
| 20260504045444 | 57 | 201 | 0.0 | 6.0 | 0.00 | 0.00 | 0.00 | 90 | 1011.6 |
| 20260504044544 | 57 | 0 | 0.0 | 0.0 | 0.00 | 0.00 | 0.00 | 89 | 1011.6 |
| 20260504043644 | 57 | 0 | 0.0 | 0.0 | 0.00 | 0.00 | 0.00 | 89 | 1011.7 |
| 20260504042744 | 57 | 0 | 0.0 | 0.0 | 0.00 | 0.00 | 0.00 | 89 | 1011.7 |
| 20260504040945 | 58 | 0 | 0.0 | 0.0 | 0.00 | 0.00 | 0.00 | 89 | 1011.9 |
| 20260504040044 | 58 | 0 | 0.0 | 0.0 | 0.00 | 0.00 | 0.00 | 89 | 1011.9 |
| 20260504035144 | 58 | 0 | 0.0 | 0.0 | 0.00 | 0.00 | 0.00 | 89 | 1012.0 |
| 20260504034244 | 59 | 0 | 0.0 | 0.0 | 0.00 | 0.00 | 0.00 | 89 | 1012.0 |
| 20260504033344 | 59 | 0 | 0.0 | 0.0 | 0.00 | 0.00 | 0.00 | 89 | 1011.9 |
| 20260504032444 | 59 | 0 | 0.0 | 0.0 | 0.00 | 0.00 | 0.00 | 89 | 1012.1 |
| 20260504031544 | 59 | 0 | 0.0 | 0.0 | 0.00 | 0.00 | 0.00 | 89 | 1012.3 |
| 20260504030644 | 59 | 195 | 2.0 | 4.0 | 0.00 | 0.00 | 0.00 | 89 | 1012.3 |
| 20260504025744 | 58 | 196 | 1.0 | 5.0 | 0.00 | 0.00 | 0.00 | 89 | 1012.3 |
| 20260504024844 | 58 | 198 | 0.0 | 5.0 | 0.00 | 0.00 | 0.00 | 89 | 1012.3 |
| 20260504023944 | 58 | 0 | 0.0 | 0.0 | 0.00 | 0.00 | 0.00 | 89 | 1012.3 |
| 20260504022144 | 58 | 0 | 0.0 | 0.0 | 0.00 | 0.00 | 0.00 | 89 | 1012.4 |
| 20260504021244 | 58 | 0 | 0.0 | 0.0 | 0.00 | 0.00 | 0.00 | 88 | 1012.5 |
| 20260504020344 | 58 | 0 | 0.0 | 0.0 | 0.00 | 0.00 | 0.00 | 88 | 1012.4 |
| 20260504015444 | 58 | 0 | 0.0 | 0.0 | 0.00 | 0.00 | 0.00 | 87 | 1012.6 |
| 20260504014544 | 58 | 0 | 0.0 | 0.0 | 0.00 | 0.00 | 0.00 | 87 | 1012.7 |
| 20260504013644 | 59 | 0 | 0.0 | 0.0 | 0.00 | 0.00 | 0.00 | 87 | 1012.7 |
| 20260504012744 | 59 | 0 | 0.0 | 0.0 | 0.00 | 0.00 | 0.00 | 87 | 1012.6 |
| 20260504011844 | 59 | 0 | 0.0 | 0.0 | 0.00 | 0.00 | 0.00 | 87 | 1012.7 |
| 20260504010944 | 59 | 0 | 0.0 | 0.0 | 0.00 | 0.00 | 0.00 | 87 | 1012.7 |
| 20260504010044 | 59 | 0 | 0.0 | 0.0 | 0.00 | 0.00 | 0.00 | 87 | 1012.8 |
| 20260504005144 | 59 | 0 | 0.0 | 0.0 | 0.00 | 0.00 | 0.00 | 86 | 1012.9 |
| 20260504004244 | 59 | 0 | 0.0 | 0.0 | 0.00 | 0.00 | 0.00 | 86 | 1012.9 |
| 20260504002444 | 59 | 0 | 0.0 | 0.0 | 0.00 | 0.00 | 0.00 | 86 | 1012.9 |
| 20260503235744 | 60 | 0 | 0.0 | 0.0 | 0.00 | 0.00 | 0.00 | 86 | 1013.1 |
| 20260503234844 | 60 | 200 | 0.0 | 4.0 | 0.00 | 0.00 | 0.00 | 86 | 1013.3 |
| 20260503233944 | 60 | 200 | 0.0 | 2.0 | 0.00 | 0.00 | 0.00 | 87 | 1013.3 |
| 20260503233044 | 60 | 199 | 1.0 | 3.0 | 0.00 | 0.00 | 0.00 | 86 | 1013.4 |
| 20260503232144 | 60 | 199 | 1.0 | 3.0 | 0.00 | 0.00 | 0.00 | 86 | 1013.4 |
| 20260503231244 | 60 | 0 | 0.0 | 0.0 | 0.00 | 0.00 | 0.00 | 86 | 1013.6 |
| 20260503230344 | 60 | 0 | 0.0 | 0.0 | 0.00 | 0.00 | 0.00 | 86 | 1013.7 |
| 20260503225444 | 61 | 0 | 0.0 | 0.0 | 0.00 | 0.00 | 0.00 | 86 | 1013.8 |
| 20260503224544 | 61 | 0 | 0.0 | 0.0 | 0.00 | 0.00 | 0.00 | 86 | 1014.1 |
| 20260503223644 | 61 | 0 | 0.0 | 0.0 | 0.00 | 0.00 | 0.00 | 86 | 1014.1 |
| 20260503222744 | 61 | 0 | 0.0 | 0.0 | 0.00 | 0.00 | 0.00 | 86 | 1014.2 |
| 20260503221844 | 61 | 0 | 0.0 | 0.0 | 0.00 | 0.00 | 0.00 | 86 | 1014.4 |
| 20260503220944 | 61 | 0 | 0.0 | 0.0 | 0.00 | 0.00 | 0.00 | 85 | 1014.4 |
| 20260503220044 | 61 | 199 | 1.0 | 3.0 | 0.00 | 0.00 | 0.00 | 85 | 1014.5 |
| 20260503215144 | 61 | 196 | 2.0 | 4.0 | 0.00 | 0.00 | 0.00 | 85 | 1014.4 |
| 20260503214244 | 61 | 189 | 0.0 | 5.0 | 0.00 | 0.00 | 0.00 | 85 | 1014.3 |
| 20260503213344 | 61 | 0 | 1.0 | 0.0 | 0.00 | 0.00 | 0.00 | 85 | 1014.5 |
| 20260503212444 | 61 | 173 | 2.0 | 7.0 | 0.00 | 0.00 | 0.00 | 85 | 1014.6 |
| 20260503210644 | 61 | 157 | 5.0 | 8.0 | 0.00 | 0.00 | 0.00 | 86 | 1014.7 |
| 20260503205744 | 61 | 150 | 5.0 | 11.0 | 0.00 | 0.00 | 0.00 | 86 | 1014.7 |
| 20260503204844 | 61 | 152 | 4.0 | 10.0 | 0.00 | 0.00 | 0.00 | 86 | 1014.8 |
| 20260503203944 | 61 | 147 | 3.0 | 10.0 | 0.00 | 0.00 | 0.00 | 86 | 1014.9 |
| 20260503202144 | 61 | 151 | 4.0 | 7.0 | 0.00 | 0.00 | 0.00 | 85 | 1015.0 |
| 20260503201244 | 61 | 159 | 5.0 | 10.0 | 0.00 | 0.00 | 0.00 | 84 | 1015.0 |
| 20260503200344 | 61 | 156 | 4.0 | 10.0 | 0.00 | 0.00 | 0.00 | 84 | 1014.7 |
| 20260503195444 | 61 | 155 | 4.0 | 8.0 | 0.00 | 0.00 | 0.00 | 85 | 1014.5 |
| 20260503193644 | 61 | 154 | 5.0 | 10.0 | 0.00 | 0.00 | 0.00 | 84 | 1014.1 |
| 20260503192744 | 62 | 149 | 4.0 | 9.0 | 0.00 | 0.00 | 0.00 | 83 | 1014.0 |
| 20260503191844 | 62 | 148 | 5.0 | 8.0 | 0.00 | 0.00 | 0.00 | 83 | 1013.8 |
| 20260503190944 | 62 | 152 | 6.0 | 10.0 | 0.00 | 0.00 | 0.00 | 83 | 1013.9 |
| 20260503190044 | 62 | 157 | 6.0 | 10.0 | 0.00 | 0.00 | 0.00 | 82 | 1013.9 |
| 20260503185144 | 62 | 153 | 5.0 | 10.0 | 0.00 | 0.00 | 0.00 | 82 | 1013.8 |
| 20260503183344 | 62 | 153 | 4.0 | 11.0 | 0.00 | 0.00 | 0.00 | 82 | 1013.6 |
| 20260503182444 | 63 | 149 | 4.0 | 10.0 | 0.00 | 0.00 | 0.00 | 82 | 1013.7 |
| 20260503181544 | 63 | 153 | 5.0 | 9.0 | 0.00 | 0.00 | 0.00 | 81 | 1013.6 |
| 20260503180644 | 63 | 147 | 5.0 | 10.0 | 0.00 | 0.00 | 0.00 | 81 | 1013.7 |
| 20260503175744 | 63 | 145 | 6.0 | 11.0 | 0.00 | 0.00 | 0.00 | 79 | 1013.8 |
| 20260503174844 | 64 | 142 | 7.0 | 12.0 | 0.00 | 0.00 | 0.00 | 77 | 1013.7 |
| 20260503173944 | 64 | 144 | 8.0 | 13.0 | 0.00 | 0.00 | 0.00 | 77 | 1013.7 |